This demonstration page uses our WeatherBlox Daily Observations layout. Learn more.

36.17497, -115.13722

Hourly Observations for February 1, 2015

Temp ( °F °C ) Dew Point ( °F °C ) Humidity (%) Winds ( mph kmh ) Pressure ( in mb ) Visibility ( mi km ) Precip ( " mm )
12:53 am 00:53 Clear 51 10.6 37 2.8 59 59 WNW 5 7 30.11 1020 10 16.0934 0 0
1:53 am 01:53 Clear 49 9.4 37 2.8 64 64 W 6 9 30.11 1020 10 16.0934 0 0
2:53 am 02:53 Clear 49 9.4 36 2.2 61 61 N 5 7 30.13 1020 10 16.0934 0 0
3:53 am 03:53 Clear 47 8.3 35 1.7 63 63 N 7 11 30.15 1021 10 16.0934 0 0
4:53 am 04:53 Clear 49 9.4 34 1.1 56 56 NNW 6 9 30.17 1022 10 16.0934 0 0
5:53 am 05:53 Clear 46 7.8 33 0.6 61 61 NW 8 13 30.19 1022 10 16.0934 0 0
6:53 am 06:53 Sunny 46 7.8 32 0 58 58 W 7 11 30.22 1023 10 16.0934 0 0
7:53 am 07:53 Sunny 48 8.9 32 0 54 54 WNW 7 11 30.23 1024 10 16.0934 0 0
8:53 am 08:53 Sunny 53 11.7 32 0 45 45 NNE 5 7 30.24 1024 10 16.0934 0 0
9:53 am 09:53 Sunny 53 11.7 34 1.1 48 48 SSE 3 6 30.25 1024 10 16.0934 0 0
10:53 am 10:53 Sunny 58 14.4 31 -0.6 36 36 SSW 3 6 30.23 1024 10 16.0934 0 0
11:53 am 11:53 Sunny 60 15.6 28 -2.2 30 30 VRB 3 6 30.21 1023 10 16.0934 0 0
12:53 pm 12:53 Sunny 61 16.1 29 -1.7 30 30 VRB 3 6 30.18 1022 10 16.0934 0 0
1:53 pm 13:53 Sunny 63 17.2 29 -1.7 28 28 Calm 30.16 1021 10 16.0934 0 0
2:53 pm 14:53 Sunny 63 17.2 28 -2.2 27 27 ESE 3 6 30.15 1021 10 16.0934 0 0
3:53 pm 15:53 Mostly Sunny 64 18 36 2 34 34 NNW 13 20 29.85 1011 10 16.0934 0 0
4:53 pm 16:53 Sunny 61 16.1 34 1.1 36 36 Calm 30.15 1021 10 16.0934 0 0
5:53 pm 17:53 Clear 60 15.6 31 -0.6 33 33 Calm 30.16 1021 10 16.0934 0 0
6:53 pm 18:53 Clear 55 12.8 34 1.1 45 45 W 3 6 30.17 1022 10 16.0934 0 0
7:53 pm 19:53 Clear 53 11.7 36 2.2 52 52 WNW 5 7 30.18 1022 10 16.0934 0 0
8:53 pm 20:53 Clear 50 10 38 3.3 63 63 NNW 6 9 30.19 1022 10 16.0934 0 0
9:53 pm 21:53 Clear 49 9.4 37 2.8 64 64 NNW 6 9 30.21 1023 10 16.0934 0 0
10:53 pm 22:53 Clear 49 9.4 36 2.2 61 61 W 6 9 30.2 1023 10 16.0934 0 0
11:53 pm 23:53 Clear 49 9.4 35 1.7 59 59 Calm 30.19 1022 10 16.0934 0 0

Powered by AerisWeather